Weather in Sertolovo

Russia / Saint-Petersburg and Leningrad Oblast     60°08′29″N   30°12′42″E
temp.,
°C
wind,
m/s
gust,
m/s
humid.,
%
clouds,
%
prec.,
mm/h
press.,
hPa
HPBL,
m
20 april, tue
tue2000:00+3ene387641 0.0 1027172
03:00+2ene227994 0.0 102636
06:00+2ene2674100 0.0 1025128
09:00+6e3760100 0.0 1024381
12:00+9ese57400 0.0 10221434
15:00+10ese46345 0.0 10201870
18:00+10ese363838 0.0 10192015
21:00+5ene246429 0.0 101864
21 april, wed
wed2100:00+4ese227491 0.0 101637
03:00+4e2684100 0.0 1015180
06:00+3e2689100 0.0 1012247
09:00+4e2489100 0.0 1010626
12:00+6ne3372100 0.1 1007938
15:00+4ne3594100 0.2 1006403
18:00+2nne1398100 0.2 1005220
21:00+2w0193100 0.3 1004370
22 april, thu
thu2200:00+3ssw139094 0.0 1004170
03:00+1sse239694 0.0 100450
06:00+1se229730 0.0 100446
09:00+6s357738 0.0 1004378
12:00+11sw364828 0.0 10051200
15:00+13sw374562 0.0 10051884
18:00+12ssw2753100 0.0 10061455
21:00+6wsw2478100 0.0 100692
23 april, fri
fri2300:00+5sw2892100 4.3 1006530
03:00+5s2595100 4.3 1007191
06:00+4sse2592100 0.0 1007191
09:00+6s2578100 0.0 1007448
12:00+7ssw466194 0.0 10081189
15:00+9ssw574876 0.3 10081672
18:00+6sw4768100 0.4 1009895
21:00+4sse26825 1.6 1009145
24 april, sat
sat2400:00+3sse228899 0.1 101036
03:00+2sse1186100 0.1 100917
06:00+2se1184100 0.0 100910
09:00+5ese1171100 0.0 1008313
12:00+8ese1258100 0.1 1008956
15:00+8e2255100 0.3 10071272
18:00+6ene3373100 0.8 1007676
21:00+4ese1291100 1.9 1007415